User: anonymous   Login
Location: *
(48.8667°N, 2.3331°E)
Time: 14:01:55
(UTC+00:00)
Language:

Cosmos 1934 Rocket - Orbit

View from above orbital plane
View from above orbital plane
View from above satellite
View from above satellite

Ground track
Ground track

The orbit data is extracted from the following two-line orbital elements,

1 18986U 88023B   20191.83552515 +.00000048 +00000-0 +32556-4 0  9997
2 18986 082.9555 291.4105 0040704 319.0003 040.8097 13.78651742624498
Epoch (UTC): 09 July 2020 20:03:09
Eccentricity: 0.0040704
inclination: 82.9555°
perigee height: 939 km
apogee height: 998 km
right ascension of ascending node: 291.4105°
argument of perigee: 319.0003°
revolutions per day: 13.78651742
mean anomaly at epoch: 40.8097°
orbit number at epoch: 62449

The dashed part of the orbit path shows where the satellite is in the earth's shadow,  

DLR